カタログに戻る

COSMOS 1275 DEB

運用中PO
NORAD 12665·DEBRIS·🇷🇺 Russia

打ち上げ Jun 4, 1981 から Plesetsk Cosmodrome

Loading…

次のパス (今後24時間)

TLE

最新Source: Space-Track

元期: Sep 13, 2026, 14:54 UTC

1 12665U 81053V   26256.62123567  .00000249  00000-0  21087-3 0  9996
2 12665  82.9643 111.0841 0033624 254.5049 162.3186 13.83763872271552

AllMySatでCOSMOS 1275 DEBをリアルタイム追跡

Download on the App Store